Aurora, OR

5:41 AM PDT on May 27, 2018 (GMT -0700)
Aurora State

Weather History for KUAO - October, 2013

Change the Weather History Date:

Saturday, October 5, 2013

  Actual Average Record
Temperature  
Mean Temperature 55 °F -  
Max Temperature 72 °F - 86 °F (2014)
Min Temperature 39 °F - 39 °F (2013)
Degree Days  
Heating Degree Days 9    
Month to date heating degree days 69  
Since 1 July heating degree days 188  
Cooling Degree Days 0    
Month to date cooling degree days 0  
Year to date cooling degree days 426  
Growing Degree Days 5 (Base 50)    
Moisture  
Dew Point 45 °F    
Average Humidity 69    
Maximum Humidity 100    
Minimum Humidity 38    
Precipitation  
Precipitation 0.00 in - 0.71 in (1965)
Month to date precipitation 0.49  
Year to date precipitation 21.46  
Sea Level Pressure  
Sea Level Pressure 30.26 in    
Wind  
Wind Speed 1 mph (NE)    
Max Wind Speed 7 mph    
Max Gust Speed 9 mph    
Visibility 8 miles    
Events Fog    
T = Trace of Precipitation, MM = Missing Value Source: NWS Daily Summary

Daily Weather History Graph

Daily Weather History Graph

Search for Another Location

Airport or City:

Astronomy

Oct. 05, 2013 Rise Set
Actual Time 7:14 AM PDT 6:43 PM PDT
Civil Twilight 6:45 AM PDT 7:12 PM PDT
Nautical Twilight 6:11 AM PDT 7:46 PM PDT
Astronomical Twilight 5:36 AM PDT 8:21 PM PDT
Moon 8:03 AM PDT (10/5) 7:00 PM PDT (10/5)
Length of Visible Light 12h 27m
Length of Day
11h 28m
New Moon, 1% of the Moon is Illuminated
Oct 5
New Moon
Oct 11
First Quarter
Oct 18
Full
Oct 26
Last Quarter
Nov 3
New

Hourly Weather History & Observations

Time (PDT) Temp. Windchill Dew Point Humidity Pressure Visibility Wind Dir Wind Speed Gust Speed Precip Events Conditions
12:53 AM 48.0 °F - 45.0 °F 89% 30.35 in 10.0 mi NE 4.6 mph - N/A   Clear
1:53 AM 48.0 °F - 45.0 °F 89% 30.35 in 10.0 mi Calm Calm - N/A   Clear
2:53 AM 46.0 °F 44.8 °F 44.1 °F 93% 30.34 in 10.0 mi ENE 3.5 mph - N/A   Clear
3:53 AM 44.1 °F - 43.0 °F 96% 30.32 in 10.0 mi Calm Calm - N/A   Clear
4:27 AM 42.8 °F - 42.8 °F 100% 30.32 in 2.5 mi Calm Calm - N/A   Partly Cloudy
4:36 AM 42.8 °F - 42.8 °F 100% 30.32 in 4.0 mi Calm Calm - N/A   Partly Cloudy
4:53 AM 42.1 °F - 42.1 °F 100% 30.32 in 10.0 mi Calm Calm - N/A   Partly Cloudy
5:53 AM 41.0 °F - 39.9 °F 96% 30.32 in 4.0 mi Calm Calm - N/A   Clear
6:53 AM 39.9 °F - 39.9 °F 100% 30.32 in 9.0 mi Calm Calm - N/A   Clear
7:19 AM 39.2 °F - 39.2 °F 100% 30.31 in 1.8 mi Calm Calm - N/A   Clear
7:24 AM 39.2 °F - 39.2 °F 100% 30.31 in 0.5 mi Calm Calm - N/A Fog Fog
7:34 AM 39.2 °F - 39.2 °F 100% 30.32 in 2.5 mi Calm Calm - N/A   Clear
7:41 AM 39.2 °F - 39.2 °F 100% 30.32 in 7.0 mi Calm Calm - N/A   Clear
7:53 AM 39.9 °F - 39.9 °F 100% 30.32 in 9.0 mi Calm Calm - N/A   Clear
8:53 AM 46.0 °F - 44.1 °F 93% 30.32 in 10.0 mi Calm Calm - N/A   Clear
9:53 AM 50.0 °F - 45.0 °F 83% 30.31 in 10.0 mi Calm Calm - N/A   Clear
10:53 AM 55.9 °F - 46.9 °F 72% 30.29 in 10.0 mi Calm Calm - N/A   Clear
11:53 AM 61.0 °F - 46.0 °F 58% 30.27 in 10.0 mi Calm Calm - N/A   Clear
12:53 PM 64.9 °F - 45.0 °F 48% 30.25 in 10.0 mi Calm Calm - N/A   Clear
1:53 PM 68.0 °F - 46.0 °F 45% 30.22 in 10.0 mi Calm Calm - N/A   Clear
2:53 PM 69.1 °F - 45.0 °F 42% 30.20 in 10.0 mi North 3.5 mph - N/A   Clear
3:53 PM 71.1 °F - 45.0 °F 39% 30.19 in 10.0 mi ENE 5.8 mph - N/A   Clear
4:53 PM 71.1 °F - 46.0 °F 41% 30.17 in 10.0 mi Calm Calm - N/A   Clear
5:53 PM 69.1 °F - 46.9 °F 45% 30.15 in 10.0 mi Calm Calm - N/A   Clear
6:53 PM 60.1 °F - 48.9 °F 67% 30.15 in 10.0 mi Calm Calm - N/A   Clear
7:53 PM 55.9 °F - 50.0 °F 80% 30.16 in 9.0 mi Calm Calm - N/A   Clear
8:53 PM 53.1 °F - 50.0 °F 89% 30.16 in 10.0 mi Calm Calm - N/A   Clear
9:53 PM 52.0 °F - 50.0 °F 93% 30.17 in 10.0 mi SSE 3.5 mph - N/A   Clear
10:53 PM 50.0 °F - 48.9 °F 96% 30.16 in 10.0 mi Calm Calm - N/A   Clear
11:51 PM 48.2 °F - 48.2 °F 100% 30.15 in 1.8 mi Calm Calm - N/A   Clear
11:53 PM 48.0 °F - 48.0 °F 100% 30.16 in 1.8 mi Calm Calm - N/A   Clear
11:58 PM 48.2 °F - 46.4 °F 93% 30.15 in 3.0 mi Calm Calm - N/A   Clear